Time,TemperatureF,DewpointF,PressureIn,WindDirection,WindDirectionDegrees,WindSpeedMPH,WindSpeedGustMPH,Humidity,HourlyPrecipIn,Conditions,Clouds,dailyrainin,SoftwareType,DateUTC
2013-08-28 00:01:00,71.8,68.7,29.80,WSW,248,3.5,3.5,90,0.00,OVC,,0.00,WeatherDisplay:10.37,2013-08-28 04:01:00,
2013-08-28 00:02:00,71.8,68.7,29.80,West,270,2.7,2.7,90,0.00,OVC,,0.00,WeatherDisplay:10.37,2013-08-28 04:02:00,
2013-08-28 00:04:00,71.8,68.7,29.80,West,270,2.3,2.5,90,0.00,OVC,,0.00,WeatherDisplay:10.37,2013-08-28 04:04:00,
2013-08-28 00:08:00,71.8,68.7,29.80,SSW,202,1.1,0.0,90,0.00,OVC,,0.00,WeatherDisplay:10.37,2013-08-28 04:08:00,
2013-08-28 00:13:00,72.0,68.9,29.80,SSW,202,2.3,2.3,90,0.00,OVC,,0.00,WeatherDisplay:10.37,2013-08-28 04:13:00,
2013-08-28 00:15:00,72.0,68.9,29.80,SW,226,1.0,3.0,90,0.00,OVC,,0.00,WeatherDisplay:10.37,2013-08-28 04:15:00,
2013-08-28 00:20:00,72.0,68.9,29.80,SW,219,2.0,4.0,90,0.00,OVC,,0.00,WeatherDisplay:10.37,2013-08-28 04:20:00,
2013-08-28 00:25:00,72.0,68.9,29.79,SSW,211,1.0,3.0,90,0.00,OVC,,0.00,WeatherDisplay:10.37,2013-08-28 04:25:00,
2013-08-28 00:30:00,72.0,68.9,29.79,SW,216,3.0,5.0,90,0.00,OVC,,0.00,WeatherDisplay:10.37,2013-08-28 04:30:00,
2013-08-28 00:35:00,72.0,68.9,29.78,South,180,2.3,2.3,90,0.00,SCT,,0.00,WeatherDisplay:10.37,2013-08-28 04:35:00,
2013-08-28 00:40:00,72.0,68.9,29.78,WSW,248,2.3,2.3,90,0.00,SCT,,0.00,WeatherDisplay:10.37,2013-08-28 04:40:00,
2013-08-28 00:45:00,72.0,68.9,29.78,West,270,0.0,0.0,90,0.00,SCT,,0.00,WeatherDisplay:10.37,2013-08-28 04:45:00,
2013-08-28 00:50:00,72.0,68.9,29.78,West,270,2.3,2.3,90,0.00,SCT,,0.00,WeatherDisplay:10.37,2013-08-28 04:50:00,
2013-08-28 00:55:00,72.0,68.9,29.78,West,270,2.3,2.3,90,0.00,SCT,,0.00,WeatherDisplay:10.37,2013-08-28 04:55:00,
2013-08-28 01:00:00,72.0,69.2,29.78,West,270,2.3,2.3,91,0.00,SCT,,0.00,WeatherDisplay:10.37,2013-08-28 05:00:00,
2013-08-28 01:05:00,72.0,69.2,29.78,SSW,202,3.5,3.5,91,0.00,SCT,,0.00,WeatherDisplay:10.37,2013-08-28 05:05:00,
2013-08-28 01:10:00,72.0,69.2,29.78,SSW,202,2.3,2.3,91,0.00,SCT,,0.00,WeatherDisplay:10.37,2013-08-28 05:10:00,
2013-08-28 01:15:00,72.0,69.2,29.77,WSW,248,3.5,3.5,91,0.00,SCT,,0.00,WeatherDisplay:10.37,2013-08-28 05:15:00,
2013-08-28 01:20:00,72.0,69.2,29.77,WSW,248,3.5,3.5,91,0.00,SCT,,0.00,WeatherDisplay:10.37,2013-08-28 05:20:00,
2013-08-28 01:25:00,72.0,69.2,29.77,WSW,248,2.3,2.3,91,0.00,SCT,,0.00,WeatherDisplay:10.37,2013-08-28 05:25:00,
2013-08-28 01:30:00,72.0,69.2,29.77,West,270,5.8,5.8,91,0.00,SCT,,0.00,WeatherDisplay:10.37,2013-08-28 05:30:00,
2013-08-28 01:35:00,72.0,69.2,29.76,SW,225,4.6,4.6,91,0.00,BKN,,0.00,WeatherDisplay:10.37,2013-08-28 05:35:00,
2013-08-28 01:40:00,72.0,69.2,29.76,WSW,248,4.6,4.6,91,0.00,BKN,,0.00,WeatherDisplay:10.37,2013-08-28 05:40:00,
2013-08-28 01:45:00,72.0,69.2,29.76,SSW,202,3.5,3.5,91,0.00,BKN,,0.00,WeatherDisplay:10.37,2013-08-28 05:45:00,
2013-08-28 01:50:00,72.0,69.2,29.75,SSW,202,4.6,4.6,91,0.00,BKN,,0.00,WeatherDisplay:10.37,2013-08-28 05:50:00,
2013-08-28 01:55:00,72.0,69.5,29.75,SSW,202,5.3,5.3,92,0.00,BKN,,0.00,WeatherDisplay:10.37,2013-08-28 05:55:00,
2013-08-28 02:00:00,71.8,69.3,29.75,SW,225,3.5,3.5,92,0.00,BKN,,0.00,WeatherDisplay:10.37,2013-08-28 06:00:00,
2013-08-28 02:05:00,71.8,69.3,29.75,WSW,248,3.5,3.5,92,0.00,BKN,,0.00,WeatherDisplay:10.37,2013-08-28 06:05:00,
2013-08-28 02:10:00,71.8,69.3,29.74,SW,225,2.3,2.3,92,0.00,BKN,,0.00,WeatherDisplay:10.37,2013-08-28 06:10:00,
2013-08-28 02:15:00,71.8,69.3,29.74,SSW,202,3.5,3.5,92,0.00,BKN,,0.00,WeatherDisplay:10.37,2013-08-28 06:15:00,
2013-08-28 02:20:00,71.8,69.3,29.74,SW,225,2.3,2.3,92,0.00,BKN,,0.00,WeatherDisplay:10.37,2013-08-28 06:20:00,
2013-08-28 02:25:00,71.8,69.3,29.74,WSW,248,0.0,0.0,92,0.00,BKN,,0.00,WeatherDisplay:10.37,2013-08-28 06:25:00,
2013-08-28 02:30:00,71.8,69.3,29.74,SSE,158,2.2,2.2,92,0.01,RA,,0.01,WeatherDisplay:10.37,2013-08-28 06:30:00,
2013-08-28 02:35:00,71.6,69.2,29.74,West,270,2.3,2.3,92,0.01,-RA,,0.01,WeatherDisplay:10.37,2013-08-28 06:35:00,
2013-08-28 02:40:00,71.6,69.2,29.74,ESE,112,1.1,1.1,92,0.01,-RA,,0.01,WeatherDisplay:10.37,2013-08-28 06:40:00,
2013-08-28 02:45:00,71.6,69.2,29.74,South,180,0.0,0.0,92,0.01,-RA,,0.01,WeatherDisplay:10.37,2013-08-28 06:45:00,
2013-08-28 02:50:00,71.8,69.7,29.74,East,90,1.1,1.1,93,0.02,-RA,,0.02,WeatherDisplay:10.37,2013-08-28 06:50:00,
2013-08-28 02:55:00,72.0,69.9,29.74,SSE,158,0.0,0.0,93,0.02,-RA,,0.03,WeatherDisplay:10.37,2013-08-28 06:55:00,
2013-08-28 03:00:00,71.8,69.7,29.75,ESE,112,2.7,2.7,93,0.03,-RA,,0.03,WeatherDisplay:10.37,2013-08-28 07:00:00,
2013-08-28 03:05:00,71.8,69.7,29.75,ESE,112,2.3,2.3,93,0.03,-RA,,0.03,WeatherDisplay:10.37,2013-08-28 07:05:00,
2013-08-28 03:10:00,71.8,69.7,29.75,SE,135,2.3,2.3,93,0.04,-RA,,0.04,WeatherDisplay:10.37,2013-08-28 07:10:00,
2013-08-28 03:15:00,71.8,69.7,29.74,SE,135,2.3,2.3,93,0.04,-RA,,0.04,WeatherDisplay:10.37,2013-08-28 07:15:00,
2013-08-28 03:20:00,71.8,69.7,29.74,ESE,112,2.3,2.3,93,0.04,-RA,,0.04,WeatherDisplay:10.37,2013-08-28 07:20:00,
2013-08-28 03:25:00,71.8,69.7,29.74,ESE,112,3.5,3.5,93,0.05,-RA,,0.05,WeatherDisplay:10.37,2013-08-28 07:25:00,
2013-08-28 03:30:00,71.8,70.0,29.74,ENE,68,3.7,3.7,94,0.04,-RA,,0.05,WeatherDisplay:10.37,2013-08-28 07:30:00,
2013-08-28 03:35:00,71.6,69.8,29.75,ESE,112,3.5,3.5,94,0.05,-RA,,0.06,WeatherDisplay:10.37,2013-08-28 07:35:00,
2013-08-28 03:40:00,71.6,69.8,29.75,ESE,112,5.3,5.3,94,0.06,-RA,,0.07,WeatherDisplay:10.37,2013-08-28 07:40:00,
2013-08-28 03:45:00,71.6,69.8,29.75,West,270,5.3,5.3,94,0.06,-RA,,0.08,WeatherDisplay:10.37,2013-08-28 07:45:00,
2013-08-28 03:50:00,71.6,70.1,29.75,ESE,112,5.8,5.8,95,0.15,-RA,,0.17,WeatherDisplay:10.37,2013-08-28 07:50:00,
2013-08-28 03:55:00,71.6,70.1,29.75,NE,45,5.8,5.8,95,0.19,-RA,,0.21,WeatherDisplay:10.37,2013-08-28 07:55:00,
2013-08-28 04:00:00,71.6,70.1,29.75,ESE,112,4.7,4.7,95,0.24,-RA,,0.27,WeatherDisplay:10.37,2013-08-28 08:00:00,
2013-08-28 04:05:00,71.6,70.1,29.75,ESE,112,4.6,4.6,95,0.26,-RA,,0.29,WeatherDisplay:10.37,2013-08-28 08:05:00,
2013-08-28 04:10:00,71.6,70.1,29.75,SE,135,5.8,5.8,95,0.27,-RA,,0.31,WeatherDisplay:10.37,2013-08-28 08:10:00,
2013-08-28 04:15:00,71.6,70.1,29.73,SE,135,5.8,5.8,95,0.27,-RA,,0.31,WeatherDisplay:10.37,2013-08-28 08:15:00,
2013-08-28 04:20:00,71.6,70.1,29.73,SSE,158,5.8,5.8,95,0.27,-RA,,0.31,WeatherDisplay:10.37,2013-08-28 08:20:00,
2013-08-28 04:25:00,71.6,70.1,29.73,SW,225,2.3,2.3,95,0.26,-RA,,0.31,WeatherDisplay:10.37,2013-08-28 08:25:00,
2013-08-28 04:30:00,71.6,70.1,29.73,ESE,112,2.7,2.7,95,0.26,-RA,,0.31,WeatherDisplay:10.37,2013-08-28 08:30:00,
2013-08-28 04:35:00,71.6,70.1,29.73,East,90,3.5,3.5,95,0.25,-RA,,0.31,WeatherDisplay:10.37,2013-08-28 08:35:00,
2013-08-28 04:40:00,71.8,70.3,29.73,NW,315,3.7,3.7,95,0.28,-RA,,0.36,WeatherDisplay:10.37,2013-08-28 08:40:00,
2013-08-28 04:45:00,71.8,70.3,29.73,SSE,158,0.0,0.0,95,0.36,-RA,,0.44,WeatherDisplay:10.37,2013-08-28 08:45:00,
2013-08-28 04:50:00,71.8,70.3,29.73,ESE,112,4.2,4.2,95,0.28,-RA,,0.46,WeatherDisplay:10.37,2013-08-28 08:50:00,
2013-08-28 04:55:00,71.8,70.3,29.73,ESE,112,4.6,4.6,95,0.27,-RA,,0.49,WeatherDisplay:10.37,2013-08-28 08:55:00,
2013-08-28 05:00:00,71.8,70.3,29.73,SE,135,0.0,0.0,95,0.22,-RA,,0.50,WeatherDisplay:10.37,2013-08-28 09:00:00,
2013-08-28 05:05:00,71.6,70.1,29.73,SSW,202,2.3,2.3,95,0.22,RA,,0.51,WeatherDisplay:10.37,2013-08-28 09:05:00,
2013-08-28 05:10:00,71.6,70.1,29.74,SW,225,0.0,0.0,95,0.22,RA,,0.55,WeatherDisplay:10.37,2013-08-28 09:10:00,
2013-08-28 05:15:00,71.6,70.1,29.74,ESE,112,4.6,4.6,95,0.30,RA,,0.63,WeatherDisplay:10.37,2013-08-28 09:15:00,
2013-08-28 05:20:00,71.6,70.1,29.74,SW,225,1.1,0.0,95,0.37,RA,,0.72,WeatherDisplay:10.37,2013-08-28 09:20:00,
2013-08-28 05:25:00,71.6,70.1,29.75,ESE,112,2.3,2.3,95,0.51,RA,,0.83,WeatherDisplay:10.37,2013-08-28 09:25:00,
2013-08-28 05:30:00,71.2,69.7,29.75,ESE,112,3.7,3.7,95,0.57,RA,,0.88,WeatherDisplay:10.37,2013-08-28 09:30:00,
2013-08-28 05:35:00,71.2,69.7,29.74,ESE,116,1.0,5.0,95,0.00,-RA,,0.89,WeatherDisplay:10.37,2013-08-28 09:35:00,
2013-08-28 05:40:00,71.1,69.6,29.74,SE,129,1.0,2.0,95,0.00,-RA,,0.90,WeatherDisplay:10.37,2013-08-28 09:40:00,
2013-08-28 05:45:00,71.1,69.6,29.74,South,186,1.0,2.0,95,0.00,-RA,,0.90,WeatherDisplay:10.37,2013-08-28 09:45:00,
2013-08-28 05:50:00,71.1,69.6,29.74,South,175,0.0,2.0,95,0.00,-RA,,0.90,WeatherDisplay:10.37,2013-08-28 09:50:00,
2013-08-28 05:55:00,71.1,69.6,29.74,SW,225,0.0,0.0,95,0.42,-RA,,0.90,WeatherDisplay:10.37,2013-08-28 09:55:00,
2013-08-28 06:00:00,71.1,69.6,29.74,West,270,0.0,0.0,95,0.41,-RA,,0.90,WeatherDisplay:10.37,2013-08-28 10:00:00,
2013-08-28 06:05:00,71.1,69.6,29.74,WSW,248,2.7,2.7,95,0.40,-RA,,0.90,WeatherDisplay:10.37,2013-08-28 10:05:00,
2013-08-28 06:10:00,71.1,69.6,29.74,WNW,292,1.1,1.1,95,0.37,-RA,,0.90,WeatherDisplay:10.37,2013-08-28 10:10:00,
2013-08-28 06:15:00,71.2,69.7,29.75,SSW,202,0.0,0.0,95,0.31,-RA,,0.91,WeatherDisplay:10.37,2013-08-28 10:15:00,
2013-08-28 06:20:00,71.4,69.9,29.75,SE,135,3.5,3.5,95,0.26,-RA,,0.93,WeatherDisplay:10.37,2013-08-28 10:20:00,
2013-08-28 06:25:00,71.2,69.7,29.75,South,180,3.5,3.5,95,0.16,-RA,,0.95,WeatherDisplay:10.37,2013-08-28 10:25:00,
2013-08-28 06:30:00,71.1,69.6,29.75,ESE,112,4.6,4.6,95,0.08,-RA,,0.95,WeatherDisplay:10.37,2013-08-28 10:30:00,
2013-08-28 06:35:00,70.9,69.4,29.75,ESE,112,2.7,2.7,95,0.07,-RA,,0.96,WeatherDisplay:10.37,2013-08-28 10:35:00,
2013-08-28 06:40:00,70.5,69.0,29.75,ESE,112,5.8,5.8,95,0.08,-RA,,0.98,WeatherDisplay:10.37,2013-08-28 10:40:00,
2013-08-28 06:45:00,70.5,69.0,29.75,SSW,202,3.5,3.5,95,0.10,-RA,,1.00,WeatherDisplay:10.37,2013-08-28 10:45:00,
2013-08-28 06:50:00,70.2,68.7,29.75,ESE,112,2.3,2.5,95,0.11,-RA,,1.01,WeatherDisplay:10.37,2013-08-28 10:50:00,
2013-08-28 06:55:00,70.2,68.7,29.75,NE,45,4.6,4.6,95,0.13,-RA,,1.03,WeatherDisplay:10.37,2013-08-28 10:55:00,
2013-08-28 07:00:00,70.0,68.5,29.75,SW,225,2.3,2.3,95,0.13,-RA,,1.03,WeatherDisplay:10.37,2013-08-28 11:00:00,
2013-08-28 07:05:00,70.0,68.5,29.75,SW,225,3.5,3.5,95,0.14,-RA,,1.04,WeatherDisplay:10.37,2013-08-28 11:05:00,
2013-08-28 07:10:00,70.0,68.5,29.76,ESE,112,4.6,4.6,95,0.14,-RA,,1.04,WeatherDisplay:10.37,2013-08-28 11:10:00,
2013-08-28 07:15:00,70.0,68.5,29.76,West,270,1.1,1.1,95,0.13,-RA,,1.04,WeatherDisplay:10.37,2013-08-28 11:15:00,
2013-08-28 07:20:00,69.8,68.3,29.76,SW,225,4.6,4.6,95,0.11,-RA,,1.04,WeatherDisplay:10.37,2013-08-28 11:20:00,
2013-08-28 07:25:00,69.8,68.3,29.76,SW,225,2.3,2.3,95,0.09,-RA,,1.04,WeatherDisplay:10.37,2013-08-28 11:25:00,
2013-08-28 07:30:00,69.6,68.1,29.76,WSW,248,3.5,3.5,95,0.09,-RA,,1.04,WeatherDisplay:10.37,2013-08-28 11:30:00,
2013-08-28 07:35:00,69.6,68.1,29.75,SSE,158,2.3,2.3,95,0.08,-RA,,1.04,WeatherDisplay:10.37,2013-08-28 11:35:00,
2013-08-28 07:40:00,69.4,67.9,29.75,South,180,4.6,4.6,95,0.06,-RA,,1.04,WeatherDisplay:10.37,2013-08-28 11:40:00,
2013-08-28 07:45:00,69.4,67.6,29.75,ESE,112,3.5,3.5,94,0.04,-RA,,1.04,WeatherDisplay:10.37,2013-08-28 11:45:00,
2013-08-28 07:50:00,69.4,67.6,29.75,WSW,248,2.3,2.3,94,0.03,-RA,,1.04,WeatherDisplay:10.37,2013-08-28 11:50:00,
2013-08-28 07:55:00,69.4,67.6,29.75,West,270,4.6,4.6,94,0.01,-RA,,1.04,WeatherDisplay:10.37,2013-08-28 11:55:00,
2013-08-28 08:00:00,69.4,67.6,29.76,SSW,202,5.8,5.8,94,0.01,-RA,,1.04,WeatherDisplay:10.37,2013-08-28 12:00:00,
2013-08-28 08:05:00,69.3,67.5,29.76,SW,225,3.5,3.5,94,0.00,-RA,,1.04,WeatherDisplay:10.37,2013-08-28 12:05:00,
2013-08-28 08:10:00,69.3,67.5,29.76,SSE,158,4.6,4.6,94,0.00,-RA,,1.04,WeatherDisplay:10.37,2013-08-28 12:10:00,
2013-08-28 08:15:00,69.3,67.5,29.75,East,90,2.3,2.3,94,0.00,-RA,,1.04,WeatherDisplay:10.37,2013-08-28 12:15:00,
2013-08-28 08:20:00,69.3,67.5,29.75,ESE,112,1.1,1.1,94,0.00,-RA,,1.04,WeatherDisplay:10.37,2013-08-28 12:20:00,
2013-08-28 08:25:00,69.3,67.5,29.74,ESE,112,0.0,0.0,94,0.00,-RA,,1.04,WeatherDisplay:10.37,2013-08-28 12:25:00,
2013-08-28 08:30:00,69.3,67.5,29.74,ESE,112,2.2,2.2,94,0.00,-RA,,1.04,WeatherDisplay:10.37,2013-08-28 12:30:00,
2013-08-28 08:35:00,69.3,67.5,29.74,ESE,112,2.3,2.4,94,0.00,OVC,,1.04,WeatherDisplay:10.37,2013-08-28 12:35:00,
2013-08-28 08:40:00,69.3,67.5,29.74,ESE,112,2.3,2.3,94,0.00,OVC,,1.04,WeatherDisplay:10.37,2013-08-28 12:40:00,
2013-08-28 08:45:00,69.3,67.5,29.74,ENE,68,2.7,2.7,94,0.00,OVC,,1.04,WeatherDisplay:10.37,2013-08-28 12:45:00,
2013-08-28 08:50:00,69.4,67.6,29.74,North,360,3.5,3.5,94,0.00,OVC,,1.04,WeatherDisplay:10.37,2013-08-28 12:50:00,
2013-08-28 08:55:00,69.4,67.3,29.74,ENE,68,3.5,3.5,93,0.00,OVC,,1.04,WeatherDisplay:10.37,2013-08-28 12:55:00,
2013-08-28 09:00:00,69.6,67.5,29.74,SSE,158,2.7,2.7,93,0.00,OVC,,1.04,WeatherDisplay:10.37,2013-08-28 13:00:00,
2013-08-28 09:05:00,69.8,67.7,29.74,SSW,202,4.6,4.6,93,0.00,OVC,,1.04,WeatherDisplay:10.37,2013-08-28 13:05:00,
2013-08-28 09:10:00,69.8,67.7,29.74,WSW,248,3.5,3.5,93,0.00,OVC,,1.04,WeatherDisplay:10.37,2013-08-28 13:10:00,
2013-08-28 09:15:00,69.8,67.7,29.74,SW,225,4.6,4.6,93,0.00,OVC,,1.04,WeatherDisplay:10.37,2013-08-28 13:15:00,
2013-08-28 09:20:00,69.8,67.7,29.74,West,270,4.6,4.6,93,0.00,OVC,,1.04,WeatherDisplay:10.37,2013-08-28 13:20:00,
2013-08-28 09:25:00,69.8,67.7,29.74,ESE,112,3.5,3.5,93,0.00,OVC,,1.04,WeatherDisplay:10.37,2013-08-28 13:25:00,
2013-08-28 09:30:00,69.8,67.7,29.74,East,90,3.5,3.5,93,0.00,OVC,,1.04,WeatherDisplay:10.37,2013-08-28 13:30:00,
2013-08-28 09:35:00,70.0,67.9,29.73,East,90,5.3,5.3,93,0.00,OVC,,1.04,WeatherDisplay:10.37,2013-08-28 13:35:00,
2013-08-28 09:40:00,70.2,67.8,29.73,NE,45,2.3,2.3,92,0.00,OVC,,1.04,WeatherDisplay:10.37,2013-08-28 13:40:00,
2013-08-28 09:45:00,70.3,67.9,29.73,SSW,202,6.9,6.9,92,0.00,OVC,,1.04,WeatherDisplay:10.37,2013-08-28 13:45:00,
2013-08-28 09:50:00,70.5,68.1,29.73,SSW,202,5.8,5.8,92,0.00,OVC,,1.04,WeatherDisplay:10.37,2013-08-28 13:50:00,
2013-08-28 09:55:00,70.5,68.1,29.73,ESE,112,3.5,3.5,92,0.00,OVC,,1.04,WeatherDisplay:10.37,2013-08-28 13:55:00,
2013-08-28 10:00:00,70.5,68.1,29.72,NW,315,1.1,1.1,92,0.00,OVC,,1.04,WeatherDisplay:10.37,2013-08-28 14:00:00,
2013-08-28 10:05:00,70.3,67.9,29.72,WSW,248,6.3,6.3,92,0.00,OVC,,1.04,WeatherDisplay:10.37,2013-08-28 14:05:00,
2013-08-28 10:10:00,70.3,67.9,29.72,SW,225,2.3,2.3,92,0.00,OVC,,1.04,WeatherDisplay:10.37,2013-08-28 14:10:00,
2013-08-28 10:15:00,70.5,68.1,29.72,WSW,248,3.7,3.7,92,0.00,OVC,,1.04,WeatherDisplay:10.37,2013-08-28 14:15:00,
2013-08-28 10:20:00,70.5,68.1,29.72,SSW,202,3.5,3.5,92,0.00,OVC,,1.04,WeatherDisplay:10.37,2013-08-28 14:20:00,
2013-08-28 10:25:00,70.7,68.3,29.72,SSW,202,5.8,5.8,92,0.00,OVC,,1.04,WeatherDisplay:10.37,2013-08-28 14:25:00,
2013-08-28 10:30:00,70.5,68.1,29.72,SW,225,4.6,4.6,92,0.00,OVC,,1.04,WeatherDisplay:10.37,2013-08-28 14:30:00,
2013-08-28 10:35:00,70.5,68.1,29.72,WSW,248,4.7,4.7,92,0.00,OVC,,1.04,WeatherDisplay:10.37,2013-08-28 14:35:00,
2013-08-28 10:40:00,70.5,68.4,29.72,WSW,248,8.1,8.1,93,0.01,RA,,1.05,WeatherDisplay:10.37,2013-08-28 14:40:00,
2013-08-28 10:45:00,70.7,68.6,29.72,South,180,6.9,6.9,93,0.01,RA,,1.05,WeatherDisplay:10.37,2013-08-28 14:45:00,
2013-08-28 10:50:00,70.9,68.8,29.71,SW,225,4.6,4.6,93,0.01,OVC,,1.05,WeatherDisplay:10.37,2013-08-28 14:50:00,
2013-08-28 10:55:00,70.9,68.8,29.71,SSW,202,5.8,5.8,93,0.01,OVC,,1.05,WeatherDisplay:10.37,2013-08-28 14:55:00,
2013-08-28 11:00:00,70.9,68.8,29.71,SW,225,5.8,5.8,93,0.01,OVC,,1.05,WeatherDisplay:10.37,2013-08-28 15:00:00,
2013-08-28 11:05:00,71.1,69.0,29.71,SW,225,8.1,8.1,93,0.01,OVC,,1.05,WeatherDisplay:10.37,2013-08-28 15:05:00,
2013-08-28 11:10:00,71.1,69.0,29.71,West,270,4.7,4.7,93,0.01,OVC,,1.05,WeatherDisplay:10.37,2013-08-28 15:10:00,
2013-08-28 11:15:00,71.4,69.3,29.71,West,270,6.9,6.9,93,0.01,OVC,,1.05,WeatherDisplay:10.37,2013-08-28 15:15:00,
2013-08-28 11:20:00,71.6,69.5,29.71,SW,225,6.8,6.8,93,0.01,OVC,,1.05,WeatherDisplay:10.37,2013-08-28 15:20:00,
2013-08-28 11:25:00,72.1,70.0,29.71,SW,225,5.8,5.8,93,0.01,OVC,,1.05,WeatherDisplay:10.37,2013-08-28 15:25:00,
2013-08-28 11:30:00,73.0,70.9,29.71,West,270,6.3,6.3,93,0.01,OVC,,1.05,WeatherDisplay:10.37,2013-08-28 15:30:00,
2013-08-28 11:35:00,73.4,71.3,29.70,WSW,248,5.8,5.8,93,0.01,OVC,,1.05,WeatherDisplay:10.37,2013-08-28 15:35:00,
2013-08-28 11:40:00,73.4,70.9,29.70,SW,225,4.6,4.6,92,0.00,OVC,,1.05,WeatherDisplay:10.37,2013-08-28 15:40:00,
2013-08-28 11:45:00,73.6,71.1,29.70,SW,225,4.6,4.6,92,0.00,OVC,,1.05,WeatherDisplay:10.37,2013-08-28 15:45:00,
2013-08-28 11:50:00,73.6,71.1,29.70,SW,225,4.7,4.7,92,0.00,OVC,,1.05,WeatherDisplay:10.37,2013-08-28 15:50:00,
2013-08-28 11:55:00,73.6,71.1,29.70,SW,225,4.6,4.6,92,0.00,OVC,,1.05,WeatherDisplay:10.37,2013-08-28 15:55:00,
2013-08-28 12:00:00,73.6,70.8,29.70,SSW,202,5.8,5.8,91,0.00,OVC,,1.05,WeatherDisplay:10.37,2013-08-28 16:00:00,
2013-08-28 12:05:00,74.1,71.3,29.70,South,180,4.2,4.2,91,0.00,OVC,,1.05,WeatherDisplay:10.37,2013-08-28 16:05:00,
2013-08-28 12:10:00,74.5,71.4,29.70,ESE,112,3.5,3.5,90,0.00,OVC,,1.05,WeatherDisplay:10.37,2013-08-28 16:10:00,
2013-08-28 12:15:00,74.7,71.6,29.70,WSW,248,5.8,5.8,90,0.00,OVC,,1.05,WeatherDisplay:10.37,2013-08-28 16:15:00,
2013-08-28 12:20:00,74.7,71.2,29.70,SW,225,8.1,8.1,89,0.00,OVC,,1.05,WeatherDisplay:10.37,2013-08-28 16:20:00,
2013-08-28 12:25:00,75.0,71.5,29.70,SW,225,3.5,3.5,89,0.00,OVC,,1.05,WeatherDisplay:10.37,2013-08-28 16:25:00,
2013-08-28 12:30:00,75.6,71.8,29.70,West,270,4.6,4.6,88,0.00,OVC,,1.05,WeatherDisplay:10.37,2013-08-28 16:30:00,
2013-08-28 12:35:00,76.1,72.6,29.69,WSW,248,3.2,3.2,89,0.00,OVC,,1.05,WeatherDisplay:10.37,2013-08-28 16:35:00,
2013-08-28 12:40:00,75.7,72.2,29.69,WSW,248,6.9,6.9,89,0.00,OVC,,1.05,WeatherDisplay:10.37,2013-08-28 16:40:00,
2013-08-28 12:45:00,75.7,71.9,29.69,WSW,248,4.6,4.6,88,0.00,OVC,,1.05,WeatherDisplay:10.37,2013-08-28 16:45:00,
2013-08-28 12:50:00,75.6,71.8,29.69,West,270,6.3,6.3,88,0.00,OVC,,1.05,WeatherDisplay:10.37,2013-08-28 16:50:00,
2013-08-28 12:55:00,75.6,72.1,29.69,WSW,248,4.6,4.6,89,0.00,OVC,,1.05,WeatherDisplay:10.37,2013-08-28 16:55:00,
2013-08-28 13:00:00,75.4,71.9,29.69,WSW,248,4.6,4.6,89,0.00,OVC,,1.05,WeatherDisplay:10.37,2013-08-28 17:00:00,
2013-08-28 13:05:00,75.4,71.9,29.69,SSW,202,3.5,3.6,89,0.00,OVC,,1.05,WeatherDisplay:10.37,2013-08-28 17:05:00,
2013-08-28 13:10:00,75.7,72.2,29.69,SW,225,5.8,5.8,89,0.00,OVC,,1.05,WeatherDisplay:10.37,2013-08-28 17:10:00,
2013-08-28 13:15:00,76.5,72.7,29.68,WSW,248,5.8,5.8,88,0.00,OVC,,1.05,WeatherDisplay:10.37,2013-08-28 17:15:00,
2013-08-28 13:20:00,77.0,72.8,29.68,South,180,4.6,4.6,87,0.00,OVC,,1.05,WeatherDisplay:10.37,2013-08-28 17:20:00,
2013-08-28 13:25:00,77.5,72.6,29.67,NW,315,6.9,6.9,85,0.00,OVC,,1.05,WeatherDisplay:10.37,2013-08-28 17:25:00,
2013-08-28 13:30:00,77.5,72.6,29.67,WSW,248,6.3,6.3,85,0.00,OVC,,1.05,WeatherDisplay:10.37,2013-08-28 17:30:00,
2013-08-28 13:35:00,77.9,72.7,29.68,SSW,202,6.9,6.9,84,0.00,-RA,,1.05,WeatherDisplay:10.37,2013-08-28 17:35:00,
2013-08-28 13:40:00,78.3,72.3,29.68,SW,225,9.2,9.2,82,0.00,-RA,,1.05,WeatherDisplay:10.37,2013-08-28 17:40:00,
2013-08-28 13:45:00,78.3,72.3,29.68,SW,225,5.8,5.8,82,0.00,-RA,,1.05,WeatherDisplay:10.37,2013-08-28 17:45:00,
2013-08-28 13:50:00,78.1,72.2,29.67,SSW,202,8.1,8.1,82,0.00,-RA,,1.05,WeatherDisplay:10.37,2013-08-28 17:50:00,
2013-08-28 13:55:00,77.5,71.9,29.67,SW,225,8.1,8.1,83,0.00,-RA,,1.05,WeatherDisplay:10.37,2013-08-28 17:55:00,
2013-08-28 14:00:00,77.4,71.8,29.67,SW,225,8.1,8.1,83,0.00,-RA,,1.05,WeatherDisplay:10.37,2013-08-28 18:00:00,
2013-08-28 14:05:00,77.2,72.0,29.67,WSW,248,6.9,6.9,84,0.00,OVC,,1.05,WeatherDisplay:10.37,2013-08-28 18:05:00,
2013-08-28 14:10:00,76.8,71.9,29.67,WSW,248,6.9,6.9,85,0.00,OVC,,1.05,WeatherDisplay:10.37,2013-08-28 18:10:00,
2013-08-28 14:15:00,76.5,72.0,29.67,West,270,9.2,9.2,86,0.00,OVC,,1.05,WeatherDisplay:10.37,2013-08-28 18:15:00,
2013-08-28 14:20:00,76.5,72.0,29.67,SW,225,10.4,10.4,86,0.00,OVC,,1.05,WeatherDisplay:10.37,2013-08-28 18:20:00,
2013-08-28 14:25:00,76.5,72.0,29.67,WSW,248,10.4,10.4,86,0.00,OVC,,1.05,WeatherDisplay:10.37,2013-08-28 18:25:00,
2013-08-28 14:30:00,77.4,72.5,29.67,SW,225,8.1,8.1,85,0.00,OVC,,1.05,WeatherDisplay:10.37,2013-08-28 18:30:00,
2013-08-28 14:35:00,77.2,72.0,29.67,WSW,248,11.9,11.9,84,0.00,-RA,,1.05,WeatherDisplay:10.37,2013-08-28 18:35:00,
2013-08-28 14:40:00,77.0,71.8,29.67,WSW,248,9.2,9.2,84,0.00,-RA,,1.05,WeatherDisplay:10.37,2013-08-28 18:40:00,
2013-08-28 14:45:00,76.5,71.7,29.67,NW,315,11.5,11.5,85,0.01,-RA,,1.06,WeatherDisplay:10.37,2013-08-28 18:45:00,
2013-08-28 14:50:00,73.9,68.8,29.68,ENE,68,16.1,16.1,84,0.01,-RA,,1.06,WeatherDisplay:10.37,2013-08-28 18:50:00,
2013-08-28 14:55:00,72.0,67.9,29.68,North,360,8.8,8.8,87,0.16,-RA,,1.23,WeatherDisplay:10.37,2013-08-28 18:55:00,
2013-08-28 15:00:00,70.5,66.8,29.70,SE,135,6.9,6.9,88,0.26,-RA,,1.32,WeatherDisplay:10.37,2013-08-28 19:00:00,
2013-08-28 15:05:00,70.0,66.6,29.70,East,90,10.4,10.4,89,0.34,RA,,1.39,WeatherDisplay:10.37,2013-08-28 19:05:00,
2013-08-28 15:10:00,69.8,66.4,29.70,East,90,9.4,9.4,89,0.34,RA,,1.39,WeatherDisplay:10.37,2013-08-28 19:10:00,
2013-08-28 15:15:00,69.6,66.2,29.70,East,90,9.2,9.2,89,0.34,BKN,,1.39,WeatherDisplay:10.37,2013-08-28 19:15:00,
2013-08-28 15:20:00,69.3,65.9,29.70,SE,135,10.4,10.4,89,0.34,BKN,,1.39,WeatherDisplay:10.37,2013-08-28 19:20:00,
2013-08-28 15:25:00,69.4,66.0,29.69,East,90,10.4,10.4,89,0.34,BKN,,1.39,WeatherDisplay:10.37,2013-08-28 19:25:00,
2013-08-28 15:30:00,69.4,66.0,29.69,ESE,112,10.4,10.4,89,0.34,BKN,,1.39,WeatherDisplay:10.37,2013-08-28 19:30:00,
2013-08-28 15:35:00,69.6,66.2,29.68,East,90,10.4,10.4,89,0.34,OVC,,1.39,WeatherDisplay:10.37,2013-08-28 19:35:00,
2013-08-28 15:40:00,69.8,66.4,29.68,ESE,112,8.3,8.3,89,0.34,OVC,,1.39,WeatherDisplay:10.37,2013-08-28 19:40:00,
2013-08-28 15:45:00,70.0,66.6,29.68,ESE,112,8.1,8.1,89,0.33,OVC,,1.39,WeatherDisplay:10.37,2013-08-28 19:45:00,
2013-08-28 15:50:00,69.6,66.2,29.68,ESE,112,5.8,5.8,89,0.37,RA,,1.43,WeatherDisplay:10.37,2013-08-28 19:50:00,
2013-08-28 15:55:00,69.6,66.5,29.68,East,90,5.8,5.8,90,0.25,RA,,1.43,WeatherDisplay:10.37,2013-08-28 19:55:00,
2013-08-28 16:00:00,70.0,66.6,29.68,SSW,202,5.8,5.8,89,0.13,OVC,,1.43,WeatherDisplay:10.37,2013-08-28 20:00:00,
2013-08-28 16:05:00,70.5,67.1,29.68,SE,135,3.5,3.5,89,0.04,OVC,,1.43,WeatherDisplay:10.37,2013-08-28 20:05:00,
2013-08-28 16:10:00,70.7,67.3,29.68,SE,135,5.8,5.8,89,0.04,OVC,,1.43,WeatherDisplay:10.37,2013-08-28 20:10:00,
2013-08-28 16:15:00,70.7,67.3,29.68,SE,135,3.5,3.5,89,0.04,OVC,,1.43,WeatherDisplay:10.37,2013-08-28 20:15:00,
2013-08-28 16:20:00,70.7,67.0,29.68,SSE,158,4.2,4.2,88,0.04,OVC,,1.43,WeatherDisplay:10.37,2013-08-28 20:20:00,
2013-08-28 16:25:00,70.5,66.8,29.68,ESE,112,6.9,6.9,88,0.04,OVC,,1.43,WeatherDisplay:10.37,2013-08-28 20:25:00,
2013-08-28 16:30:00,70.2,67.1,29.68,East,90,8.3,8.3,90,0.04,OVC,,1.43,WeatherDisplay:10.37,2013-08-28 20:30:00,
2013-08-28 16:35:00,70.3,66.9,29.68,ESE,112,6.9,6.9,89,0.04,OVC,,1.43,WeatherDisplay:10.37,2013-08-28 20:35:00,
2013-08-28 16:40:00,70.7,67.3,29.68,SSE,158,6.9,6.9,89,0.04,OVC,,1.43,WeatherDisplay:10.37,2013-08-28 20:40:00,
2013-08-28 16:45:00,71.1,67.7,29.68,ESE,112,5.8,5.8,89,0.04,OVC,,1.43,WeatherDisplay:10.37,2013-08-28 20:45:00,
2013-08-28 16:50:00,70.7,67.0,29.69,ESE,112,6.9,6.9,88,0.00,OVC,,1.43,WeatherDisplay:10.37,2013-08-28 20:50:00,
2013-08-28 16:55:00,71.2,67.1,29.69,ESE,112,6.9,6.9,87,0.00,OVC,,1.43,WeatherDisplay:10.37,2013-08-28 20:55:00,
2013-08-28 17:00:00,70.9,66.8,29.68,ESE,112,5.8,5.8,87,0.00,OVC,,1.43,WeatherDisplay:10.37,2013-08-28 21:00:00,
2013-08-28 17:05:00,72.7,67.6,29.68,SE,135,4.6,4.6,84,0.00,OVC,,1.43,WeatherDisplay:10.37,2013-08-28 21:05:00,
2013-08-28 17:10:00,73.8,68.0,29.68,ESE,112,4.6,4.6,82,0.00,OVC,,1.43,WeatherDisplay:10.37,2013-08-28 21:10:00,
2013-08-28 17:15:00,73.4,67.9,29.68,East,90,5.8,5.8,83,0.00,OVC,,1.43,WeatherDisplay:10.37,2013-08-28 21:15:00,
2013-08-28 17:20:00,73.6,67.8,29.68,SSE,158,4.6,4.6,82,0.00,OVC,,1.43,WeatherDisplay:10.37,2013-08-28 21:20:00,
2013-08-28 17:25:00,73.9,68.1,29.67,ESE,112,4.6,4.6,82,0.00,OVC,,1.43,WeatherDisplay:10.37,2013-08-28 21:25:00,
2013-08-28 17:30:00,75.0,68.4,29.67,ESE,112,4.6,4.6,80,0.00,OVC,,1.43,WeatherDisplay:10.37,2013-08-28 21:30:00,
2013-08-28 17:35:00,74.5,67.9,29.68,SE,135,4.6,4.6,80,0.00,BKN,,1.43,WeatherDisplay:10.37,2013-08-28 21:35:00,
2013-08-28 17:40:00,74.8,68.2,29.68,ESE,112,4.6,4.6,80,0.00,BKN,,1.43,WeatherDisplay:10.37,2013-08-28 21:40:00,
2013-08-28 17:45:00,75.7,68.7,29.68,ESE,112,3.5,3.5,79,0.00,BKN,,1.43,WeatherDisplay:10.37,2013-08-28 21:45:00,
2013-08-28 17:50:00,75.0,68.8,29.68,ESE,112,4.7,4.7,81,0.00,BKN,,1.43,WeatherDisplay:10.37,2013-08-28 21:50:00,
2013-08-28 17:55:00,73.8,68.3,29.68,ESE,112,6.3,6.3,83,0.00,BKN,,1.43,WeatherDisplay:10.37,2013-08-28 21:55:00,
2013-08-28 18:00:00,73.9,68.4,29.68,East,90,5.8,5.8,83,0.00,BKN,,1.43,WeatherDisplay:10.37,2013-08-28 22:00:00,
2013-08-28 18:05:00,73.0,68.2,29.68,ESE,112,6.8,6.8,85,0.00,BKN,,1.43,WeatherDisplay:10.37,2013-08-28 22:05:00,
2013-08-28 18:10:00,73.2,68.1,29.68,SSE,158,5.8,5.8,84,0.00,BKN,,1.43,WeatherDisplay:10.37,2013-08-28 22:10:00,
2013-08-28 18:15:00,72.9,67.8,29.68,East,90,5.8,5.8,84,0.00,BKN,,1.43,WeatherDisplay:10.37,2013-08-28 22:15:00,
2013-08-28 18:20:00,72.5,67.7,29.68,ESE,112,5.8,5.8,85,0.00,BKN,,1.43,WeatherDisplay:10.37,2013-08-28 22:20:00,
2013-08-28 18:25:00,72.1,67.7,29.68,ESE,112,5.8,5.8,86,0.00,BKN,,1.43,WeatherDisplay:10.37,2013-08-28 22:25:00,
2013-08-28 18:30:00,71.6,67.2,29.68,ESE,112,4.6,4.6,86,0.00,BKN,,1.43,WeatherDisplay:10.37,2013-08-28 22:30:00,
2013-08-28 18:35:00,71.6,67.2,29.68,ESE,112,4.6,4.6,86,0.00,BKN,,1.43,WeatherDisplay:10.37,2013-08-28 22:35:00,
2013-08-28 18:40:00,71.6,67.2,29.68,East,90,4.6,4.6,86,0.00,BKN,,1.43,WeatherDisplay:10.37,2013-08-28 22:40:00,
2013-08-28 18:45:00,71.6,67.5,29.68,SSE,158,3.5,3.5,87,0.00,BKN,,1.43,WeatherDisplay:10.37,2013-08-28 22:45:00,
2013-08-28 18:50:00,71.8,68.1,29.68,SW,225,2.7,2.7,88,0.01,RA,,1.44,WeatherDisplay:10.37,2013-08-28 22:50:00,
2013-08-28 18:55:00,71.6,67.9,29.68,West,270,3.5,3.5,88,0.01,RA,,1.44,WeatherDisplay:10.37,2013-08-28 22:55:00,
2013-08-28 19:00:00,71.6,67.9,29.68,SSE,158,2.7,2.7,88,0.01,BKN,,1.44,WeatherDisplay:10.37,2013-08-28 23:00:00,
2013-08-28 19:05:00,71.4,67.7,29.68,SSE,158,2.3,2.3,88,0.01,OVC,,1.44,WeatherDisplay:10.37,2013-08-28 23:05:00,
2013-08-28 19:10:00,71.2,67.5,29.68,East,90,4.6,4.6,88,0.01,OVC,,1.44,WeatherDisplay:10.37,2013-08-28 23:10:00,
2013-08-28 19:15:00,71.2,67.8,29.68,ESE,112,3.5,3.5,89,0.01,OVC,,1.44,WeatherDisplay:10.37,2013-08-28 23:15:00,
2013-08-28 19:20:00,71.2,67.8,29.68,ESE,112,2.3,2.3,89,0.01,OVC,,1.44,WeatherDisplay:10.37,2013-08-28 23:20:00,
2013-08-28 19:25:00,71.2,67.8,29.69,East,90,2.3,2.3,89,0.01,OVC,,1.44,WeatherDisplay:10.37,2013-08-28 23:25:00,
2013-08-28 19:30:00,71.2,67.8,29.69,ESE,112,2.3,2.3,89,0.01,OVC,,1.44,WeatherDisplay:10.37,2013-08-28 23:30:00,
2013-08-28 19:35:00,71.2,67.8,29.69,SE,135,0.0,0.0,89,0.01,OVC,,1.44,WeatherDisplay:10.37,2013-08-28 23:35:00,
2013-08-28 19:40:00,71.6,68.2,29.69,SW,225,1.1,1.1,89,0.01,OVC,,1.44,WeatherDisplay:10.37,2013-08-28 23:40:00,
2013-08-28 19:45:00,71.4,68.0,29.69,WNW,292,0.0,0.0,89,0.01,OVC,,1.44,WeatherDisplay:10.37,2013-08-28 23:45:00,
2013-08-28 19:50:00,71.4,68.0,29.69,East,90,1.7,1.7,89,0.00,OVC,,1.44,WeatherDisplay:10.37,2013-08-28 23:50:00,
2013-08-28 19:55:00,71.2,67.8,29.69,ESE,112,0.0,0.0,89,0.00,OVC,,1.44,WeatherDisplay:10.37,2013-08-28 23:55:00,
2013-08-28 20:00:00,71.2,67.8,29.70,East,90,3.7,3.7,89,0.00,OVC,,1.44,WeatherDisplay:10.37,2013-08-29 00:00:00,
2013-08-28 20:05:00,71.1,68.0,29.70,ESE,112,4.6,4.6,90,0.00,OVC,,1.44,WeatherDisplay:10.37,2013-08-29 00:05:00,
2013-08-28 20:10:00,70.9,67.8,29.71,ESE,112,4.6,4.6,90,0.00,OVC,,1.44,WeatherDisplay:10.37,2013-08-29 00:10:00,
2013-08-28 20:15:00,70.9,68.1,29.71,ENE,68,4.6,4.6,91,0.00,OVC,,1.44,WeatherDisplay:10.37,2013-08-29 00:15:00,
2013-08-28 20:20:00,70.7,67.9,29.71,ESE,112,5.8,5.8,91,0.00,OVC,,1.44,WeatherDisplay:10.37,2013-08-29 00:20:00,
2013-08-28 20:25:00,70.7,67.9,29.71,ESE,112,5.8,5.8,91,0.00,OVC,,1.44,WeatherDisplay:10.37,2013-08-29 00:25:00,
2013-08-28 20:30:00,70.5,67.7,29.71,East,90,4.6,4.6,91,0.00,OVC,,1.44,WeatherDisplay:10.37,2013-08-29 00:30:00,
2013-08-28 20:35:00,70.5,67.7,29.72,East,90,3.5,3.5,91,0.00,OVC,,1.44,WeatherDisplay:10.37,2013-08-29 00:35:00,
2013-08-28 20:40:00,70.3,67.5,29.72,East,90,4.6,4.6,91,0.00,OVC,,1.44,WeatherDisplay:10.37,2013-08-29 00:40:00,
2013-08-28 20:45:00,70.2,67.4,29.72,ENE,68,4.2,4.2,91,0.00,OVC,,1.44,WeatherDisplay:10.37,2013-08-29 00:45:00,
2013-08-28 20:50:00,70.2,67.4,29.72,ESE,112,3.5,3.5,91,0.00,OVC,,1.44,WeatherDisplay:10.37,2013-08-29 00:50:00,
2013-08-28 20:55:00,70.2,67.4,29.72,NE,45,1.7,1.7,91,0.00,OVC,,1.44,WeatherDisplay:10.37,2013-08-29 00:55:00,
2013-08-28 21:00:00,70.3,67.5,29.73,NE,45,3.7,3.7,91,0.00,OVC,,1.44,WeatherDisplay:10.37,2013-08-29 01:00:00,
2013-08-28 21:05:00,70.3,67.5,29.73,ESE,112,3.5,3.5,91,0.00,OVC,,1.44,WeatherDisplay:10.37,2013-08-29 01:05:00,
2013-08-28 21:10:00,70.3,67.5,29.74,ESE,112,3.5,3.5,91,0.00,OVC,,1.44,WeatherDisplay:10.37,2013-08-29 01:10:00,
2013-08-28 21:15:00,70.2,67.4,29.74,East,90,3.7,3.7,91,0.00,OVC,,1.44,WeatherDisplay:10.37,2013-08-29 01:15:00,
2013-08-28 21:20:00,70.2,67.4,29.74,ENE,68,3.5,3.5,91,0.00,OVC,,1.44,WeatherDisplay:10.37,2013-08-29 01:20:00,
2013-08-28 21:25:00,70.0,67.3,29.74,North,360,2.3,2.3,91,0.00,OVC,,1.44,WeatherDisplay:10.37,2013-08-29 01:25:00,
2013-08-28 21:30:00,70.0,67.3,29.74,ESE,112,3.5,3.5,91,0.00,OVC,,1.44,WeatherDisplay:10.37,2013-08-29 01:30:00,
2013-08-28 21:35:00,70.0,67.3,29.74,SSE,158,1.1,0.0,91,0.00,OVC,,1.44,WeatherDisplay:10.37,2013-08-29 01:35:00,
2013-08-28 21:40:00,70.0,67.3,29.74,ESE,112,4.6,4.6,91,0.00,OVC,,1.44,WeatherDisplay:10.37,2013-08-29 01:40:00,
2013-08-28 21:45:00,69.8,67.1,29.74,ESE,112,2.3,2.3,91,0.00,OVC,,1.44,WeatherDisplay:10.37,2013-08-29 01:45:00,
2013-08-28 21:50:00,69.8,67.1,29.74,ESE,112,3.5,3.5,91,0.00,OVC,,1.44,WeatherDisplay:10.37,2013-08-29 01:50:00,
2013-08-28 21:55:00,69.8,67.1,29.74,East,90,4.6,4.6,91,0.00,OVC,,1.44,WeatherDisplay:10.37,2013-08-29 01:55:00,
2013-08-28 22:00:00,69.8,67.1,29.74,NE,45,3.5,3.6,91,0.00,OVC,,1.44,WeatherDisplay:10.37,2013-08-29 02:00:00,
2013-08-28 22:05:00,69.8,67.1,29.74,ESE,112,4.7,4.7,91,0.00,OVC,,1.44,WeatherDisplay:10.37,2013-08-29 02:05:00,
2013-08-28 22:10:00,69.8,67.1,29.75,ENE,68,4.2,4.2,91,0.00,OVC,,1.44,WeatherDisplay:10.37,2013-08-29 02:10:00,
2013-08-28 22:15:00,69.8,67.1,29.75,NE,45,3.5,3.5,91,0.00,OVC,,1.44,WeatherDisplay:10.37,2013-08-29 02:15:00,
2013-08-28 22:20:00,69.8,67.1,29.75,NE,45,3.5,3.5,91,0.00,OVC,,1.44,WeatherDisplay:10.37,2013-08-29 02:20:00,
2013-08-28 22:25:00,69.8,67.1,29.75,SW,225,5.8,5.8,91,0.00,OVC,,1.44,WeatherDisplay:10.37,2013-08-29 02:25:00,
2013-08-28 22:30:00,69.6,67.2,29.75,SSW,202,4.6,4.6,92,0.00,OVC,,1.44,WeatherDisplay:10.37,2013-08-29 02:30:00,
2013-08-28 22:35:00,69.6,67.2,29.75,WNW,292,2.3,2.3,92,0.00,CLR,,1.44,WeatherDisplay:10.37,2013-08-29 02:35:00,
2013-08-28 22:40:00,69.6,67.2,29.75,NE,45,4.6,4.6,92,0.00,CLR,,1.44,WeatherDisplay:10.37,2013-08-29 02:40:00,
2013-08-28 22:45:00,69.6,67.2,29.75,East,90,4.6,4.6,92,0.00,CLR,,1.44,WeatherDisplay:10.37,2013-08-29 02:45:00,
2013-08-28 22:50:00,69.6,67.2,29.75,ENE,68,4.6,4.6,92,0.00,CLR,,1.44,WeatherDisplay:10.37,2013-08-29 02:50:00,
2013-08-28 22:55:00,69.6,67.2,29.75,NNE,22,3.7,3.7,92,0.00,CLR,,1.44,WeatherDisplay:10.37,2013-08-29 02:55:00,
2013-08-28 23:00:00,69.6,67.5,29.76,ESE,112,2.3,2.3,93,0.00,CLR,,1.44,WeatherDisplay:10.37,2013-08-29 03:00:00,
2013-08-28 23:05:00,69.6,67.5,29.76,ESE,112,3.5,3.5,93,0.00,BKN,,1.44,WeatherDisplay:10.37,2013-08-29 03:05:00,
2013-08-28 23:10:00,69.6,67.5,29.76,East,90,2.3,2.3,93,0.00,BKN,,1.44,WeatherDisplay:10.37,2013-08-29 03:10:00,
2013-08-28 23:15:00,69.6,67.5,29.76,NE,45,2.3,2.3,93,0.00,BKN,,1.44,WeatherDisplay:10.37,2013-08-29 03:15:00,
2013-08-28 23:20:00,69.6,67.5,29.76,NNW,338,2.3,2.6,93,0.00,BKN,,1.44,WeatherDisplay:10.37,2013-08-29 03:20:00,
2013-08-28 23:25:00,69.6,67.5,29.76,NW,315,3.5,3.5,93,0.00,BKN,,1.44,WeatherDisplay:10.37,2013-08-29 03:25:00,
2013-08-28 23:30:00,69.6,67.5,29.76,NNW,338,3.2,3.2,93,0.00,BKN,,1.44,WeatherDisplay:10.37,2013-08-29 03:30:00,
2013-08-28 23:35:00,69.6,67.5,29.76,WSW,248,2.7,2.7,93,0.00,BKN,,1.44,WeatherDisplay:10.37,2013-08-29 03:35:00,
2013-08-28 23:40:00,69.6,67.5,29.76,West,270,3.5,3.5,93,0.00,BKN,,1.44,WeatherDisplay:10.37,2013-08-29 03:40:00,
2013-08-28 23:45:00,69.6,67.5,29.76,NW,315,2.3,2.3,93,0.00,BKN,,1.44,WeatherDisplay:10.37,2013-08-29 03:45:00,
2013-08-28 23:50:00,69.6,67.5,29.76,NW,315,1.7,1.7,93,0.00,BKN,,1.44,WeatherDisplay:10.37,2013-08-29 03:50:00,
2013-08-28 23:55:00,69.8,67.7,29.76,ESE,112,3.5,3.5,93,0.00,BKN,,1.44,WeatherDisplay:10.37,2013-08-29 03:55:00,